Location: Terschelling
(53.4100°N, 5.3500°E)
Time: 12:18:20
(UTC+01:00)

CAS-4A - Visible Passes

Search period start: 05 December 2023 00:00
Search period end: 15 December 2023 00:00
Orbit: 493 x 508 km, 43.0° (Epoch: 05 December)

Date Brightness Start Highest point End Pass type
(mag) Time Alt. Az. Time Alt. Az. Time Alt. Az.
05 Dec ? 17:29:45 10° SW 17:32:24 18° S 17:35:03 10° SE visible
05 Dec ? 19:09:01 10° SW 19:10:49 13° SSW 19:11:47 12° S visible
06 Dec ? 17:07:49 10° SW 17:10:28 18° S 17:13:07 10° SE visible
06 Dec ? 18:47:10 10° SW 18:48:53 13° SSW 18:50:36 10° S visible
07 Dec ? 18:25:18 10° SW 18:26:55 12° SSW 18:28:33 10° S visible
08 Dec ? 18:03:26 10° SW 18:04:57 12° SSW 18:06:27 10° S visible
09 Dec ? 17:41:33 10° SW 17:42:56 12° SSW 17:44:19 10° S visible
10 Dec ? 17:19:40 10° SW 17:20:55 11° SSW 17:22:09 10° S visible
